Location: Dreilärchen
(47.9312°N, 8.6113°E)
Time: 17:55:50
(UTC+00:00)

BREEZE-M DEB (TANK) - Visible Passes

Search period start: 06 October 2022 00:00
Search period end: 16 October 2022 00:00
Orbit: 332 x 13819 km, 49.6° (Epoch: 05 October)

Date Brightness Start Highest point End Pass type
(mag) Time Alt. Az. Time Alt. Az. Time Alt. Az.
06 Oct 10.6 01:05:51 10° ENE 01:13:38 10° ENE 01:21:06 10° ENE visible
06 Oct 9.4 03:57:06 10° S 05:36:28 62° ESE 06:42:34 10° ENE visible
07 Oct 9.7 01:43:09 10° SE 03:00:38 32° E 04:00:16 10° NE visible
08 Oct 9.4 03:23:24 10° S 04:58:47 58° ESE 06:07:10 10° ENE visible
09 Oct 9.8 01:14:09 10° ESE 02:26:03 28° E 03:22:54 10° NE visible
10 Oct 9.4 02:50:02 10° SSE 04:21:32 53° ESE 05:31:28 10° ENE visible
11 Oct 9.8 00:46:32 10° ESE 01:51:48 24° E 02:44:41 10° NE visible
11 Oct 9.3 04:44:05 10° SSW 06:32:26 78° SE 07:34:50 10° ENE visible
12 Oct 9.4 02:17:02 10° SSE 03:44:45 49° ESE 04:55:24 10° NE visible
13 Oct 9.9 00:20:49 10° ESE 01:17:52 20° ENE 02:05:17 10° NE visible
13 Oct 9.3 04:08:56 10° SSW 05:52:20 74° SE 06:59:32 10° ENE visible
14 Oct 9.4 01:44:28 10° SSE 03:08:25 44° E 04:18:57 10° NE visible
14 Oct 10.0 23:57:51 10° E 00:44:14 16° ENE 01:24:00 10° NE visible
15 Oct 9.2 03:34:04 10° SSW 05:12:39 70° ESE 06:23:59 10° ENE visible
